Location: Amsterdam
(30.7274°N, 84.4357°W)
Time: 07:20:16
(UTC+00:00)

Tiros 1 - Pass Details

Date: 20 February 2026
Orbit: 618 x 649 km, 48.4° (Epoch: 9 March)

Event Time Altitude Azimuth Distance (km) Brightness Sun altitude
Rises 12:08:40 0° 226° (SW) 2,923 10.2 -1.9°
Reaches altitude 10° 12:11:00 10° 226° (SW) 2,011 9.4 -1.4°
Maximum altitude 12:15:38 85° 139° (SE) 636 7.3 -0.4°
Drops below altitude 10° 12:20:14 10° 50° (NE) 1,999 10.3 0.6°
Sets 12:22:33 0° 50° (NE) 2,903 11.1 1.1°
